Theta_e
293 292 292 292 292 292 292 292 292 291 291 291 291 291 290 290 290 289 289 289 289 289 289 289 289 289 288 288 288 287 287 287 287 286 286 286 286 285 285 285 285 284
292 292 292 292 292 292 291 291 291 291 291 290 290 290 290 290 289 289 289 289 289 289 289 289 289 288 288 288 287 287 287 286 286 286 286 286 285 285 285 285 285 284
292 292 292 291 291 291 291 291 290 290 290 290 289 290 290 289 289 289 289 289 289 289 289 288 288 288 287 287 286 286 286 286 286 286 286 286 286 285 285 285 284 284
292 292 291 291 291 291 290 290 290 290 290 289 289 289 289 289 289 289 289 289 289 288 288 288 287 287 287 286 286 286 286 286 286 286 286 286 286 285 285 284 284 283
292 291 291 291 290 290 290 290 290 290 289 289 289 289 289 289 288 289 289 289 288 288 288 287 287 287 286 286 285 285 286 286 286 286 286 286 285 285 284 284 283 283
292 291 290 290 290 290 290 290 289 289 289 289 289 289 289 288 288 288 288 288 288 287 287 287 286 286 286 285 285 285 286 286 286 286 285 285 285 284 283 283 282 282
292 291 290 290 290 289 289 289 289 289 289 289 289 288 288 288 288 288 288 288 287 287 286 286 286 286 285 285 285 286 286 285 285 285 285 285 284 284 283 282 282 282
292 291 290 290 289 289 289 289 289 289 289 289 288 288 288 288 288 288 287 287 287 286 286 286 285 285 285 285 285 285 285 285 285 284 284 284 284 283 283 282 281 281
291 291 290 289 289 289 289 289 289 289 288 289 288 288 288 288 288 287 287 287 286 286 286 285 285 285 285 285 285 285 284 284 284 284 284 284 283 283 282 281 281 280
291 290 289 289 289 289 289 288 288 288 288 288 288 288 288 288 287 287 287 286 286 286 285 285 285 285 285 285 284 284 284 284 284 284 283 283 283 283 282 281 280 279
291 290 289 289 289 289 288 288 288 288 288 288 288 288 288 287 287 287 286 286 286 285 285 284 284 284 284 284 284 284 284 284 283 283 283 283 283 283 281 280 278 278
290 290 289 288 288 288 288 288 288 288 288 288 288 288 288 287 287 287 286 286 285 285 285 284 284 284 284 284 284 283 283 283 283 283 283 283 282 282 281 279 277 276
290 289 288 288 288 288 288 288 288 288 288 288 288 288 287 287 287 286 286 285 285 285 284 284 284 283 283 283 283 283 283 283 283 283 283 283 282 282 281 279 277 276
290 289 288 288 288 288 288 288 288 288 288 288 288 287 287 287 286 286 285 285 285 284 284 284 283 283 283 283 283 283 282 282 282 283 283 283 282 280 279 277 276 274
289 288 288 288 288 288 288 288 288 288 288 288 287 287 287 286 286 285 285 284 284 284 284 283 283 283 283 283 282 282 282 282 282 283 283 282 280 278 277 275 274 274
289 288 288 288 288 288 288 288 288 288 288 288 287 287 286 286 285 285 284 284 284 284 283 283 283 283 282 282 282 281 281 281 282 282 281 280 278 277 276 275 274 273
289 288 287 288 288 288 288 288 288 288 288 287 287 287 286 286 285 285 284 284 284 283 283 283 282 282 282 281 281 281 281 281 281 280 279 278 276 275 275 274 274 273
289 288 287 287 288 288 288 288 288 288 287 287 287 286 286 285 285 284 284 284 283 283 282 282 282 282 281 281 281 281 281 280 280 279 277 276 275 274 274 274 274 273
288 287 287 287 287 288 288 288 288 288 287 287 286 286 286 285 285 284 284 283 283 282 282 282 281 281 281 280 280 280 280 280 279 277 276 275 275 274 274 273 273 273
287 287 287 287 287 288 288 288 288 287 287 287 286 286 285 285 284 284 283 283 282 282 282 281 281 280 280 280 280 280 280 279 278 277 275 275 274 274 274 274 274 274
287 287 287 287 287 288 288 288 287 287 287 286 286 285 285 284 283 283 283 283 282 281 281 281 280 280 280 280 280 280 280 279 278 277 276 275 274 274 274 274 274 274
287 287 287 287 287 288 288 287 287 286 286 286 285 285 284 283 283 283 283 282 282 281 281 280 280 280 280 280 280 279 279 279 279 277 276 275 274 274 274 274 274 274
287 287 287 287 288 288 287 287 286 286 286 285 285 284 283 283 283 283 282 282 281 281 280 280 280 279 279 279 279 279 279 279 278 276 275 274 274 274 274 275 275 275
287 287 287 287 287 287 287 286 286 285 285 284 284 283 283 282 282 282 282 281 281 280 280 279 279 279 279 279 279 278 278 278 276 275 275 275 274 274 275 275 275 276
287 287 287 287 287 287 286 286 285 284 284 284 283 283 282 282 282 282 281 281 280 280 279 279 279 279 278 278 278 278 277 276 274 274 274 274 274 275 275 276 276 276
287 287 287 287 287 287 286 285 284 284 283 283 282 282 281 282 282 281 281 280 280 279 279 278 278 278 278 278 278 278 276 274 273 274 274 274 275 275 275 276 275 275
Wind_Speed
44 43 42 40 37 34 32 29 27 25 23 22 21 20 20 21 22 23 23 24 25 27 28 30 32 34 35 35 35 35 35 35 34 34 35 35 35 35 35 35 35 35
45 44 42 40 37 35 32 29 27 25 23 22 21 20 21 22 23 23 23 24 26 27 29 31 32 33 33 33 33 33 33 34 33 33 35 35 35 36 36 36 36 36
46 45 43 40 37 34 32 29 27 25 24 23 21 21 21 22 23 23 24 25 27 28 29 31 31 31 31 31 31 32 32 32 33 33 35 36 36 36 36 36 36 35
47 45 43 39 36 34 31 29 27 25 24 23 22 22 22 22 22 23 24 26 27 29 30 30 30 30 29 29 29 30 31 31 32 33 35 36 36 36 37 36 37 36
48 45 42 39 36 33 31 29 27 25 24 23 22 22 22 22 22 23 25 26 28 29 29 29 29 29 28 28 28 29 30 31 32 33 35 37 37 37 38 38 39 39
48 45 42 39 36 33 31 29 27 25 24 23 23 23 22 22 23 24 26 27 28 28 28 28 28 28 27 27 28 29 30 31 33 34 36 38 39 38 38 38 39 40
48 45 42 39 36 33 31 29 27 25 24 23 23 22 22 23 24 25 26 27 27 27 27 27 27 27 27 27 28 29 30 32 34 35 37 38 39 39 38 38 40 41
48 45 42 39 36 34 31 29 27 26 24 23 23 22 22 23 24 25 26 26 26 26 26 26 26 26 26 27 28 29 31 33 34 35 37 38 38 39 38 38 39 41
49 46 42 39 36 34 32 30 27 26 24 23 22 22 23 24 25 25 25 26 26 26 26 25 25 26 26 27 28 30 32 33 33 34 36 37 38 38 38 37 38 41
49 46 42 39 37 35 32 30 28 25 24 23 21 22 23 24 24 25 25 25 25 25 25 25 25 25 26 27 29 30 32 32 33 35 35 37 38 38 38 38 39 41
49 46 43 40 38 35 32 30 27 25 23 22 21 22 24 24 24 24 24 24 24 24 24 24 25 25 26 28 29 30 32 33 34 35 36 37 38 38 38 38 38 41
50 47 43 41 38 35 32 29 27 25 23 21 22 23 23 23 23 23 23 23 22 23 23 24 25 25 27 28 30 31 32 34 34 35 37 37 37 37 37 38 39 41
50 46 43 41 38 34 31 28 26 24 22 21 22 23 23 22 22 22 22 21 21 22 23 24 24 26 27 29 30 32 33 34 34 35 36 37 38 38 38 39 40 41
49 46 43 40 37 34 30 27 25 23 22 22 23 22 21 21 21 21 21 20 21 21 22 24 24 26 28 29 30 32 33 33 34 36 37 37 38 38 39 39 40 41
48 46 43 40 37 33 29 27 25 23 22 22 22 21 20 20 20 20 20 19 20 21 22 23 25 26 28 29 30 32 33 34 35 35 36 36 37 37 38 38 39 40
49 46 44 40 36 32 29 26 24 23 23 22 21 20 19 19 19 19 18 19 20 21 22 23 25 26 27 28 29 31 32 33 34 34 34 35 36 37 38 38 39 38
49 47 43 40 36 32 29 26 24 23 23 22 20 18 18 18 19 18 17 19 20 21 22 24 25 26 27 28 28 29 30 32 33 34 34 34 34 36 37 37 38 37
49 46 43 39 35 32 29 26 24 24 23 21 19 18 18 18 17 17 17 19 20 22 23 24 24 25 26 27 27 28 29 30 31 33 33 34 34 35 36 37 38 39
49 46 43 39 35 31 28 26 25 24 22 20 18 17 18 17 17 16 17 19 21 22 23 23 24 25 26 26 26 27 28 29 31 32 33 34 35 35 37 38 38 39
48 45 42 38 35 31 28 26 25 23 21 19 18 17 18 17 16 16 17 19 21 22 23 23 23 24 25 25 25 27 28 30 31 32 33 34 35 37 38 39 38 39
48 45 41 37 34 30 28 27 25 22 20 18 18 17 17 15 15 15 17 19 21 22 24 23 22 22 24 24 25 26 28 31 32 33 34 34 36 38 40 41 41 43
47 44 40 37 33 30 28 26 24 21 19 18 18 17 16 14 14 15 17 20 21 22 24 23 21 21 22 23 24 26 29 32 33 33 34 35 37 39 41 42 43 45
46 42 39 35 32 29 28 25 22 20 19 18 17 16 15 14 14 15 17 20 21 21 23 23 21 20 21 23 24 26 29 32 33 34 35 37 39 41 43 46 48 47
43 40 37 33 30 28 25 22 21 19 18 17 17 15 14 14 14 15 17 20 21 21 21 22 21 19 20 23 25 26 28 29 31 34 37 39 42 44 46 49 50 47
41 37 34 31 28 25 22 20 20 18 17 17 16 14 14 14 13 15 17 19 20 20 20 21 21 20 21 22 24 25 25 26 28 33 37 41 45 48 50 50 49 47
40 36 32 29 26 23 21 20 18 17 17 16 14 13 13 13 13 15 17 19 19 18 18 19 21 21 21 22 23 24 23 23 26 31 36 42 45 47 50 50 48 47
Wind_Direction
229 229 229 230 232 234 235 237 238 241 245 249 253 257 263 270 274 278 283 287 290 292 296 299 302 304 305 306 307 306 306 306 307 307 307 304 303 302 300 299 297 294
229 228 228 229 230 232 234 235 237 240 244 246 250 256 263 269 273 278 284 287 289 293 297 301 303 305 306 307 307 307 307 307 307 307 305 304 303 302 300 300 297 294
228 228 228 228 230 232 233 234 235 238 242 245 250 257 263 269 274 279 284 287 290 295 299 303 305 307 308 308 307 306 306 306 306 306 305 304 303 302 301 300 296 293
228 227 227 228 229 230 230 232 234 236 240 244 251 258 264 269 275 280 284 288 292 297 301 303 306 307 307 305 304 304 305 306 307 307 306 306 305 304 303 301 297 294
228 227 226 226 227 228 229 230 232 235 239 245 252 259 265 271 278 282 285 289 294 298 301 304 305 305 305 305 305 306 308 309 310 310 308 307 307 304 303 301 298 295
227 226 225 225 226 226 227 229 231 234 239 246 254 261 268 275 281 284 287 291 296 299 302 304 305 305 305 306 307 309 311 311 312 311 309 308 308 305 303 301 297 294
227 226 224 224 224 224 225 227 229 234 239 247 255 263 271 278 281 284 288 293 297 300 302 304 305 306 307 308 309 311 312 312 312 311 310 309 308 306 305 301 297 294
226 225 224 223 222 222 223 225 228 234 240 249 257 266 273 278 280 284 290 294 297 300 302 304 305 306 307 309 311 312 313 313 312 311 311 310 309 308 306 302 297 295
225 224 222 221 220 220 222 224 228 234 242 250 259 267 273 276 279 286 291 295 297 300 302 304 304 305 307 309 311 312 312 313 313 312 312 312 310 309 306 301 296 295
224 222 220 218 218 219 220 223 228 235 243 252 260 267 271 274 280 287 291 294 297 300 302 302 303 304 307 309 310 311 312 314 315 315 315 314 312 310 307 302 299 298
222 220 218 217 217 217 219 223 229 237 244 252 260 265 269 274 281 287 291 294 297 299 300 301 302 304 306 308 311 312 314 316 317 317 317 316 313 311 308 303 301 302
220 218 217 216 215 216 218 223 230 238 245 253 259 263 268 275 282 287 291 293 296 298 299 299 301 304 307 310 312 314 316 317 319 319 318 316 313 312 310 307 307 308
219 217 215 214 214 215 219 225 231 238 246 253 258 262 269 277 283 287 290 293 296 298 299 300 302 306 308 311 314 317 318 319 319 319 317 316 314 314 314 313 311 311
217 215 214 213 213 215 220 225 231 239 246 252 257 263 271 279 284 287 289 293 297 298 298 300 303 307 309 313 317 319 320 320 319 319 318 316 316 316 317 316 314 312
215 213 212 212 213 216 220 225 232 238 245 251 256 264 273 280 284 286 290 294 296 297 298 301 305 308 311 315 319 320 321 320 319 318 318 317 317 318 317 315 313 310
213 212 212 211 212 215 219 225 231 237 244 250 256 265 274 279 282 285 290 293 295 297 299 302 306 310 313 317 321 322 321 319 318 317 317 317 317 318 318 317 315 311
212 211 210 210 211 214 218 224 230 236 243 249 256 267 273 276 280 284 290 294 296 298 300 303 307 311 315 318 321 322 320 318 317 316 316 316 315 315 315 315 314 310
210 209 208 208 210 213 217 223 230 236 242 249 256 265 270 274 279 284 291 295 297 298 300 304 309 312 315 318 319 319 319 317 316 315 315 315 314 313 313 314 314 313
209 207 207 207 209 213 216 222 230 236 241 249 256 263 268 272 278 285 292 296 297 299 302 305 310 313 314 316 316 316 318 318 316 315 314 314 314 314 315 315 314 312
207 205 205 207 208 211 217 223 230 235 241 248 255 261 266 271 277 285 292 296 297 300 302 306 311 312 312 313 313 315 318 320 319 316 315 315 316 317 316 315 314 313
206 204 204 206 208 211 218 225 230 235 240 247 253 259 264 269 276 285 292 295 297 299 301 306 310 311 311 312 312 315 319 321 320 319 320 321 321 320 317 314 313 314
205 204 204 206 208 213 220 225 230 235 239 246 252 256 262 267 275 286 293 294 297 299 301 305 311 313 312 311 312 318 321 322 322 323 325 324 322 320 319 316 314 312
205 205 206 207 210 216 222 226 230 235 239 245 250 255 260 267 275 287 293 295 297 299 301 306 313 314 310 310 315 321 324 324 326 327 326 324 324 322 320 318 317 314
205 206 208 210 214 219 224 229 233 235 239 244 249 254 259 266 278 289 294 295 297 299 303 308 313 312 310 313 319 325 328 329 329 328 327 326 326 324 321 320 319 316
205 207 210 214 219 223 228 233 236 238 241 244 247 252 258 268 282 290 293 295 297 301 307 311 313 314 317 321 324 329 333 333 328 326 326 325 324 324 322 320 317 314
205 207 212 217 222 228 232 236 238 240 242 245 247 252 260 272 286 292 293 295 297 304 310 313 314 317 323 327 329 334 339 335 328 326 325 323 322 319 317 315 313 311